Kirksville, MO

8:57 AM CDT on August 18, 2017 (GMT -0500)
Kirksville Regional

Weather History for KIRK - March, 2012

Change the Weather History Date:

Tuesday, March 6, 2012

  Actual Average Record
Temperature  
Mean Temperature 54 °F 36 °F  
Max Temperature 74 °F 46 °F 74 °F (2012)
Min Temperature 34 °F 27 °F -9 °F (1960)
Degree Days  
Heating Degree Days 11 28  
Month to date heating degree days 169 177  
Since 1 July heating degree days 4107 4710  
Cooling Degree Days 0 0  
Month to date cooling degree days 0 0  
Year to date cooling degree days 0 0  
Growing Degree Days 10 (Base 50)    
Moisture  
Dew Point 32 °F    
Average Humidity 42    
Maximum Humidity 64    
Minimum Humidity 19    
Precipitation  
Precipitation 0.00 in 0.08 in 1.34 in (1961)
Month to date precipitation 0.14 0.48  
Year to date precipitation 2.68 3.28  
Sea Level Pressure  
Sea Level Pressure 29.89 in    
Wind  
Wind Speed 18 mph (SSW)    
Max Wind Speed 33 mph    
Max Gust Speed 46 mph    
Visibility 10 miles    
Events      
T = Trace of Precipitation, MM = Missing Value Source: NWS Daily Summary

Daily Weather History Graph

Daily Weather History Graph

Search for Another Location

Airport or City:

Trip Planner

Search our weather history database for the weather conditions in past years. The results will help you decide how hot, cold, wet, or windy it might be!

Date:

Astronomy

Mar. 06, 2012 Rise Set
Actual Time 6:35 AM CST 6:08 PM CST
Civil Twilight 6:08 AM CST 6:35 PM CST
Nautical Twilight 5:36 AM CST 7:06 PM CST
Astronomical Twilight 5:05 AM CST 7:38 PM CST
Moon 4:35 PM CST (3/6) 5:11 AM CST (3/6)
Length of Visible Light 12h 27m
Length of Day
11h 32m
Waxing Gibbous, 96% of the Moon is Illuminated
Mar 6
Waxing Gibbous
Mar 8
Full
Mar 14
Last Quarter
Mar 22
New
Mar 30
First Quarter

Hourly Weather History & Observations

Time (CST) Temp. Dew Point Humidity Pressure Visibility Wind Dir Wind Speed Gust Speed Precip Events Conditions
12:55 AM 46.9 °F 26.1 °F 44% 30.01 in 10.0 mi South 18.4 mph 27.6 mph N/A   Clear
1:55 AM 48.0 °F 27.0 °F 44% 30.01 in 10.0 mi SSW 17.3 mph 26.5 mph N/A   Clear
2:55 AM 46.9 °F 28.0 °F 48% 29.99 in 10.0 mi South 15.0 mph 27.6 mph N/A   Clear
3:55 AM 46.9 °F 28.9 °F 50% 29.97 in 10.0 mi South 13.8 mph 23.0 mph N/A   Clear
4:55 AM 46.9 °F 30.0 °F 52% 29.96 in 10.0 mi South 13.8 mph 23.0 mph N/A   Clear
5:55 AM 46.9 °F 30.0 °F 52% 29.96 in 10.0 mi SSW 15.0 mph 23.0 mph N/A   Clear
6:55 AM 48.0 °F 30.9 °F 52% 29.95 in 10.0 mi South 16.1 mph 28.8 mph N/A   Clear
7:55 AM 52.0 °F 32.0 °F 47% 29.94 in 10.0 mi SSW 20.7 mph 33.4 mph N/A   Clear
8:55 AM 57.0 °F 34.0 °F 42% 29.93 in 10.0 mi SSW 19.6 mph 29.9 mph N/A   Clear
9:55 AM 61.0 °F 36.0 °F 39% 29.92 in 10.0 mi SSW 18.4 mph 33.4 mph N/A   Clear
10:55 AM 66.9 °F 36.0 °F 32% 29.90 in 10.0 mi SSW 23.0 mph 39.1 mph N/A   Clear
11:55 AM 70.0 °F 32.0 °F 25% 29.88 in 10.0 mi SSW 21.9 mph 40.3 mph N/A   Clear
12:55 PM 71.1 °F 32.0 °F 24% 29.85 in 10.0 mi SSW 26.5 mph 42.6 mph N/A   Clear
1:55 PM 73.0 °F 30.0 °F 20% 29.81 in 10.0 mi SSW 20.7 mph 46.0 mph N/A   Clear
2:55 PM 73.0 °F 28.0 °F 19% 29.80 in 10.0 mi SSW 26.5 mph 41.4 mph N/A   Clear
3:55 PM 71.1 °F 30.0 °F 22% 29.81 in 10.0 mi SSW 19.6 mph 35.7 mph N/A   Clear
4:55 PM 68.0 °F 30.2 °F 24% 29.80 in 10.0 mi SSW 16.1 mph 26.5 mph N/A   Clear
5:55 PM 66.0 °F 32.0 °F 28% 29.82 in 10.0 mi SSW 16.1 mph 27.6 mph N/A   Clear
6:55 PM 63.0 °F 32.0 °F 31% 29.83 in 10.0 mi South 13.8 mph 20.7 mph N/A   Clear
7:55 PM 60.8 °F 32.0 °F 34% 29.84 in 10.0 mi South 13.8 mph - N/A   Clear
8:55 PM 60.8 °F 33.8 °F 36% 29.85 in 10.0 mi South 12.7 mph - N/A   Clear
9:55 PM 60.1 °F 35.1 °F 39% 29.87 in 10.0 mi South 16.1 mph 25.3 mph N/A   Clear
10:55 PM 59.0 °F 35.1 °F 41% 29.87 in 10.0 mi South 16.1 mph 21.9 mph N/A   Partly Cloudy
11:55 PM 57.9 °F 37.0 °F 46% 29.86 in 10.0 mi South 13.8 mph - N/A   Mostly Cloudy